Temp
-0 -1 -1 0 -0 1 -1 -0 -2 -0 -1 -0 -1 -2 -2 -2 -2 -3 -3 -3 -2 -3 -4 -4 -5 -5 -5 -5 -5 -5 -5 -6 -6 -7 -10 -10 -10 -10 -11 -11 -12 -12 -12 -12
-0 -0 -0 1 1 1 1 1 0 -1 -1 -1 -1 -3 -3 -3 -3 -3 -3 -3 -3 -5 -5 -5 -5 -5 -5 -5 -5 -5 -6 -7 -8 -9 -10 -10 -11 -11 -11 -11 -12 -13 -13 -13
-2 -1 -1 0 1 1 -0 -0 -1 -1 -1 -2 -3 -3 -3 -2 -3 -3 -3 -4 -5 -5 -6 -6 -6 -6 -6 -6 -6 -7 -8 -9 -10 -11 -11 -11 -12 -12 -12 -13 -13 -13 -13 -14
-3 -2 -4 1 0 -0 -1 -0 -1 -1 -2 -3 -2 -3 -3 -4 -4 -4 -5 -5 -5 -6 -6 -7 -7 -7 -7 -7 -8 -9 -10 -11 -11 -12 -12 -12 -13 -13 -13 -14 -14 -14 -14 -14
-2 -2 -2 -1 -0 -1 -1 -1 -2 -2 -2 -3 -4 -4 -4 -5 -5 -6 -5 -5 -7 -7 -7 -7 -7 -7 -7 -8 -9 -10 -11 -11 -12 -12 -13 -13 -14 -14 -14 -14 -14 -14 -14 -15
-2 -4 -4 -1 -1 -2 -2 -3 -2 -3 -4 -4 -5 -5 -5 -5 -6 -6 -7 -8 -7 -7 -7 -7 -7 -8 -9 -9 -10 -11 -12 -12 -13 -13 -14 -15 -14 -14 -14 -14 -14 -15 -15 -15
-2 -3 -2 -0 -1 -2 -3 -2 -4 -4 -5 -5 -5 -6 -6 -6 -6 -7 -8 -7 -7 -7 -8 -8 -8 -9 -10 -11 -12 -12 -12 -13 -14 -15 -15 -14 -14 -14 -14 -15 -15 -15 -15 -15
-3 -3 -3 -1 -2 -2 -3 -4 -4 -4 -5 -5 -5 -6 -6 -6 -8 -8 -8 -7 -7 -7 -8 -9 -9 -10 -11 -12 -12 -13 -14 -14 -15 -15 -15 -15 -15 -15 -15 -15 -15 -16 -16 -16
-3 -2 -2 -3 -3 -4 -4 -4 -4 -5 -5 -5 -6 -6 -7 -8 -8 -8 -8 -8 -8 -9 -9 -10 -11 -12 -12 -13 -14 -14 -14 -15 -16 -15 -15 -15 -15 -15 -15 -16 -16 -16 -16 -16
-3 -2 -2 -3 -4 -4 -4 -4 -5 -5 -5 -6 -6 -7 -9 -8 -8 -8 -9 -9 -10 -10 -10 -11 -12 -13 -13 -13 -14 -14 -15 -16 -15 -15 -15 -15 -15 -16 -16 -16 -17 -17 -16 -16
-3 -3 -3 -4 -3 -4 -5 -4 -5 -5 -6 -6 -8 -9 -8 -8 -8 -9 -9 -10 -10 -11 -11 -13 -13 -13 -13 -14 -15 -15 -16 -16 -16 -16 -16 -16 -16 -16 -17 -17 -17 -17 -17 -17
-3 -4 -4 -4 -4 -4 -4 -5 -6 -6 -7 -8 -9 -8 -8 -9 -9 -9 -10 -10 -11 -12 -13 -13 -14 -14 -15 -15 -15 -16 -16 -16 -16 -16 -16 -16 -16 -17 -18 -18 -18 -18 -18 -17
-4 -5 -5 -4 -4 -5 -6 -7 -6 -8 -9 -9 -9 -9 -9 -9 -10 -10 -10 -11 -12 -12 -13 -14 -15 -15 -15 -15 -15 -16 -16 -16 -16 -16 -16 -16 -17 -17 -17 -17 -18 -18 -18 -18
-5 -5 -5 -5 -5 -5 -6 -7 -7 -9 -11 -10 -9 -9 -9 -10 -10 -10 -11 -11 -12 -13 -13 -14 -15 -15 -15 -15 -16 -16 -16 -16 -16 -16 -17 -17 -17 -17 -18 -18 -18 -18 -18 -18
-5 -6 -6 -7 -7 -7 -7 -8 -9 -9 -10 -10 -10 -10 -10 -10 -10 -10 -11 -12 -13 -13 -14 -14 -15 -15 -15 -15 -16 -16 -16 -16 -16 -17 -17 -17 -18 -18 -18 -18 -18 -18 -18 -18
-6 -6 -7 -8 -8 -8 -8 -9 -11 -11 -10 -10 -10 -10 -10 -10 -10 -11 -12 -12 -13 -13 -14 -14 -15 -15 -15 -16 -16 -16 -16 -16 -17 -17 -17 -17 -18 -18 -18 -18 -18 -18 -18 -19
-7 -8 -8 -8 -8 -8 -9 -10 -11 -11 -11 -10 -10 -10 -10 -11 -11 -11 -12 -13 -13 -14 -14 -15 -15 -15 -15 -16 -16 -16 -16 -16 -17 -17 -17 -18 -18 -18 -18 -18 -18 -18 -19 -19
-9 -8 -8 -9 -10 -10 -10 -10 -10 -11 -11 -11 -11 -11 -11 -11 -12 -12 -13 -13 -13 -14 -15 -15 -15 -15 -15 -15 -16 -16 -16 -16 -17 -17 -17 -18 -18 -18 -18 -18 -18 -19 -19 -19
-9 -10 -10 -10 -11 -12 -11 -11 -11 -11 -11 -12 -12 -12 -12 -13 -13 -13 -13 -14 -14 -15 -15 -15 -15 -15 -15 -15 -16 -16 -16 -17 -17 -17 -17 -17 -18 -18 -18 -18 -18 -19 -19 -19
-11 -11 -11 -11 -10 -11 -11 -11 -12 -12 -12 -13 -13 -13 -13 -13 -13 -13 -14 -14 -15 -15 -15 -15 -15 -15 -15 -15 -16 -16 -16 -17 -17 -17 -17 -17 -18 -18 -18 -18 -18 -18 -19 -19
-11 -11 -11 -11 -11 -11 -11 -12 -12 -13 -13 -13 -14 -14 -14 -13 -14 -14 -14 -14 -15 -15 -15 -15 -15 -15 -15 -16 -16 -16 -16 -17 -17 -17 -17 -17 -18 -18 -18 -18 -18 -18 -18 -19
-11 -11 -11 -11 -12 -12 -12 -12 -13 -13 -14 -14 -14 -14 -14 -14 -14 -14 -14 -15 -15 -15 -15 -15 -15 -15 -15 -16 -16 -16 -16 -17 -17 -17 -17 -17 -17 -18 -18 -18 -18 -18 -18 -19
-12 -12 -12 -12 -12 -13 -13 -13 -13 -14 -14 -14 -14 -14 -14 -14 -14 -15 -15 -16 -15 -15 -15 -15 -15 -15 -15 -16 -16 -16 -16 -17 -17 -17 -17 -17 -18 -18 -18 -18 -18 -18 -18 -19
-12 -12 -12 -13 -13 -13 -13 -13 -13 -13 -13 -14 -14 -13 -14 -14 -15 -15 -16 -16 -15 -15 -15 -15 -15 -15 -16 -16 -16 -16 -16 -16 -17 -17 -17 -17 -18 -18 -18 -18 -18 -18 -19 -19
-13 -13 -13 -13 -13 -13 -13 -13 -13 -13 -13 -13 -13 -14 -14 -15 -15 -16 -16 -15 -16 -16 -16 -15 -15 -16 -16 -16 -16 -16 -16 -16 -17 -17 -17 -17 -18 -18 -18 -18 -18 -18 -18 -19
-13 -13 -13 -13 -14 -14 -13 -13 -14 -14 -14 -14 -14 -14 -15 -15 -16 -16 -16 -16 -16 -16 -16 -16 -16 -16 -16 -16 -16 -16 -17 -17 -17 -17 -17 -18 -18 -18 -18 -18 -18 -18 -18 -19
-13 -13 -13 -13 -13 -14 -13 -13 -13 -14 -14 -14 -14 -15 -15 -16 -16 -16 -16 -16 -16 -16 -16 -16 -16 -16 -16 -16 -17 -17 -17 -17 -17 -17 -18 -18 -18 -18 -18 -18 -18 -18 -18 -18
Height
3148 3148 3145 3139 3137 3135 3133 3129 3127 3121 3118 3116 3112 3108 3105 3102 3096 3091 3085 3080 3074 3068 3062 3055 3049 3044 3037 3030 3023 3014 3005 2996 2986 2978 2971 2966 2963 2960 2957 2954 2952 2949 2946 2942
3141 3142 3140 3133 3130 3128 3128 3125 3121 3118 3114 3112 3108 3103 3099 3094 3088 3084 3077 3070 3063 3057 3052 3045 3040 3034 3027 3020 3011 3001 2992 2984 2976 2969 2966 2962 2958 2955 2952 2948 2943 2939 2936 2933
3141 3138 3136 3127 3124 3124 3121 3121 3117 3112 3110 3106 3102 3097 3093 3086 3082 3076 3069 3061 3055 3050 3043 3038 3031 3024 3016 3008 2998 2989 2981 2975 2969 2964 2960 2956 2952 2948 2944 2940 2937 2933 2929 2925
3138 3137 3136 3126 3122 3119 3115 3114 3111 3109 3104 3099 3095 3090 3085 3079 3073 3066 3058 3052 3047 3041 3035 3030 3023 3015 3006 2996 2987 2978 2972 2967 2964 2959 2955 2951 2947 2943 2939 2935 2930 2926 2922 2917
3134 3130 3125 3118 3115 3114 3109 3107 3105 3102 3097 3093 3087 3081 3078 3071 3065 3060 3052 3044 3038 3033 3028 3020 3013 3004 2994 2985 2977 2970 2965 2961 2958 2953 2949 2946 2942 2937 2932 2927 2923 2919 2913 2908
3129 3126 3117 3112 3110 3107 3103 3095 3096 3093 3089 3083 3079 3070 3067 3061 3056 3049 3042 3037 3031 3024 3017 3009 3000 2992 2984 2976 2969 2966 2961 2956 2953 2948 2943 2939 2936 2930 2925 2920 2915 2910 2905 2900
3122 3117 3110 3105 3103 3101 3101 3099 3089 3086 3080 3076 3070 3066 3058 3052 3047 3041 3036 3030 3024 3016 3006 2998 2989 2982 2976 2970 2966 2961 2956 2951 2947 2942 2938 2934 2929 2923 2918 2913 2908 2903 2897 2892
3115 3113 3107 3102 3099 3099 3094 3086 3081 3077 3072 3067 3060 3055 3049 3043 3038 3034 3028 3021 3014 3006 2997 2989 2982 2974 2969 2964 2960 2956 2951 2946 2942 2937 2932 2927 2922 2917 2911 2906 2900 2895 2889 2885
3111 3102 3099 3097 3092 3088 3083 3077 3071 3068 3062 3056 3051 3044 3039 3034 3032 3026 3018 3011 3004 2995 2987 2981 2974 2968 2963 2958 2954 2950 2945 2940 2936 2931 2926 2921 2915 2910 2904 2899 2892 2887 2882 2876
3098 3095 3091 3089 3085 3080 3073 3069 3064 3058 3053 3046 3042 3035 3031 3028 3022 3016 3010 3001 2994 2987 2979 2973 2968 2964 2959 2953 2948 2944 2939 2935 2930 2925 2920 2915 2909 2903 2897 2891 2885 2880 2874 2868
3086 3084 3080 3078 3072 3066 3063 3058 3051 3048 3043 3036 3031 3031 3027 3020 3013 3007 3001 2993 2985 2978 2973 2966 2962 2957 2952 2947 2943 2939 2934 2929 2925 2920 2914 2909 2903 2896 2891 2885 2879 2873 2867 2861
3074 3077 3072 3065 3058 3055 3052 3048 3043 3039 3035 3031 3028 3025 3019 3013 3006 2999 2993 2987 2980 2972 2966 2962 2956 2952 2947 2942 2938 2934 2929 2924 2919 2914 2908 2902 2896 2891 2885 2879 2874 2868 2862 2856
3069 3068 3063 3056 3053 3048 3039 3040 3035 3031 3028 3027 3024 3018 3012 3006 3000 2992 2986 2979 2972 2966 2961 2956 2951 2946 2942 2937 2933 2929 2924 2919 2914 2908 2902 2896 2890 2885 2880 2875 2869 2863 2857 2852
3061 3057 3053 3050 3045 3039 3035 3032 3029 3026 3023 3020 3016 3010 3003 2998 2992 2985 2978 2972 2966 2961 2955 2950 2946 2941 2937 2933 2929 2924 2919 2914 2908 2902 2896 2891 2886 2880 2875 2869 2864 2859 2853 2848
3049 3047 3045 3042 3037 3033 3027 3023 3021 3019 3015 3013 3008 2999 2993 2988 2983 2977 2971 2965 2960 2955 2949 2944 2940 2936 2932 2928 2923 2919 2914 2908 2903 2898 2892 2887 2882 2877 2871 2865 2860 2854 2849 2845
3040 3036 3034 3031 3028 3025 3020 3017 3013 3010 3005 3001 2996 2990 2985 2980 2974 2968 2963 2957 2953 2948 2943 2939 2935 2932 2927 2923 2918 2913 2908 2903 2898 2894 2889 2884 2879 2874 2868 2862 2857 2852 2847 2842
3034 3031 3029 3026 3023 3019 3015 3010 3004 2999 2995 2990 2986 2982 2977 2971 2965 2960 2954 2949 2945 2941 2938 2934 2931 2927 2922 2917 2913 2909 2904 2899 2895 2891 2886 2882 2877 2871 2866 2860 2855 2850 2845 2840
3029 3026 3023 3020 3016 3011 3007 3003 2996 2991 2986 2979 2975 2971 2966 2960 2955 2950 2945 2941 2937 2935 2932 2929 2925 2921 2917 2913 2910 2905 2901 2897 2892 2888 2884 2880 2875 2869 2863 2858 2853 2848 2843 2839
3023 3020 3017 3014 3008 3003 2997 2991 2985 2981 2977 2970 2964 2960 2956 2950 2945 2941 2937 2934 2931 2929 2927 2924 2921 2918 2914 2910 2907 2903 2899 2894 2890 2886 2882 2878 2873 2867 2862 2857 2852 2847 2842 2838
3017 3013 3010 3004 2999 2993 2986 2983 2976 2970 2966 2959 2954 2949 2944 2940 2935 2932 2929 2927 2925 2924 2922 2920 2918 2915 2911 2908 2904 2901 2897 2892 2888 2884 2880 2876 2871 2866 2861 2856 2851 2846 2842 2837
3010 3005 3000 2994 2989 2985 2979 2972 2966 2960 2955 2949 2942 2937 2933 2930 2926 2923 2922 2920 2920 2919 2918 2916 2914 2911 2907 2905 2901 2898 2894 2890 2886 2882 2878 2874 2870 2865 2860 2855 2851 2846 2842 2838
3002 2997 2991 2984 2978 2973 2969 2962 2956 2949 2944 2938 2933 2929 2925 2921 2918 2917 2916 2916 2916 2915 2913 2912 2909 2907 2904 2901 2898 2895 2892 2888 2884 2880 2876 2872 2868 2864 2859 2855 2850 2847 2843 2839
2991 2987 2980 2974 2968 2962 2957 2952 2946 2940 2935 2930 2925 2921 2917 2913 2912 2912 2911 2912 2911 2910 2909 2908 2906 2903 2900 2898 2895 2892 2888 2885 2881 2877 2874 2870 2866 2862 2858 2854 2850 2846 2843 2840
2982 2977 2970 2965 2958 2953 2946 2943 2937 2932 2927 2922 2917 2913 2910 2909 2909 2909 2909 2909 2908 2907 2905 2904 2902 2899 2897 2894 2891 2888 2885 2881 2878 2875 2871 2868 2864 2861 2857 2853 2850 2847 2843 2840
2973 2967 2962 2955 2949 2942 2936 2931 2927 2923 2919 2915 2911 2908 2908 2907 2907 2906 2906 2905 2904 2902 2901 2900 2898 2895 2893 2891 2888 2885 2882 2878 2875 2872 2869 2865 2862 2859 2855 2852 2849 2846 2843 2840
2964 2959 2954 2948 2942 2935 2930 2925 2920 2916 2912 2909 2907 2906 2906 2905 2904 2904 2903 2901 2900 2898 2897 2896 2894 2892 2889 2887 2884 2882 2878 2875 2872 2869 2866 2862 2859 2856 2853 2850 2848 2845 2842 2840
2957 2952 2947 2941 2936 2929 2925 2920 2916 2912 2908 2906 2905 2905 2904 2903 2902 2901 2900 2898 2896 2895 2893 2891 2890 2888 2886 2884 2881 2878 2875 2872 2868 2865 2862 2859 2856 2853 2850 2848 2846 2844 2841 2839
Wind_Speed
21 19 22 28 30 26 28 26 23 28 30 35 33 32 31 33 37 39 43 49 48 42 41 40 39 38 39 44 50 55 55 51 51 48 36 31 33 37 35 32 30 31 30 32
29 18 15 28 31 15 15 18 23 31 32 30 34 33 32 37 41 49 52 49 49 46 44 42 41 43 46 49 54 56 56 51 43 32 23 27 23 25 27 30 32 32 32 33
11 19 20 21 3 17 17 24 30 23 28 33 29 35 45 48 50 50 49 48 45 42 38 40 44 44 47 50 51 54 51 44 32 24 22 24 28 30 32 34 36 36 37 37
12 17 2 14 25 31 32 24 22 25 30 21 43 47 44 44 46 49 40 49 41 41 43 43 44 49 51 52 53 49 42 32 31 26 27 27 26 27 33 35 37 37 36 37
9 14 22 33 14 19 20 26 33 27 22 39 51 47 47 43 44 45 54 42 38 41 44 45 47 50 51 50 46 35 30 29 29 26 24 25 30 32 35 37 37 36 36 38
21 10 6 22 22 21 25 30 20 20 45 51 46 48 44 46 46 43 34 40 42 44 48 50 50 50 48 42 34 32 28 27 28 30 31 29 32 34 35 36 36 37 37 38
27 24 18 30 23 19 16 21 36 46 45 48 45 43 47 51 39 34 40 42 46 48 49 49 47 42 36 30 28 29 30 30 31 30 31 32 33 34 34 35 37 36 37 37
20 10 14 19 20 26 40 48 44 45 46 46 46 50 43 32 33 38 41 47 48 47 46 43 41 35 31 30 29 28 24 30 29 30 33 34 33 33 35 36 35 36 36 36
23 19 39 44 46 47 39 39 41 40 48 42 47 46 33 32 39 45 46 46 47 45 42 37 32 32 31 27 25 27 31 31 28 31 33 32 33 34 35 35 36 35 35 35
38 41 46 39 42 37 30 36 41 36 43 49 43 27 33 41 44 43 45 45 45 44 39 33 30 33 32 30 29 29 27 30 31 31 31 33 34 35 35 34 34 34 34 34
42 43 38 40 39 41 32 41 39 47 43 41 25 36 42 46 43 44 44 44 43 39 35 31 31 32 32 28 27 29 31 31 31 31 33 34 34 34 33 32 33 33 33 34
43 37 42 45 49 39 37 39 45 47 28 26 33 37 40 43 43 42 42 42 39 35 33 32 30 27 25 27 29 30 29 30 31 33 34 33 32 30 29 30 30 31 31 32
46 41 37 38 44 40 31 40 37 18 25 29 34 40 42 44 40 40 41 39 36 35 34 32 31 27 27 29 28 28 29 30 32 32 30 29 29 28 28 28 28 30 29 29
33 35 37 40 34 31 39 33 33 22 26 33 38 45 43 40 39 41 40 38 36 35 34 31 26 26 26 26 26 28 29 31 30 29 28 27 26 28 28 29 29 27 26 25
35 38 36 35 34 35 36 27 25 28 34 40 42 38 39 42 42 42 39 37 35 36 32 25 23 24 25 26 27 29 29 29 28 27 26 26 27 26 28 29 28 26 23 23
33 33 32 30 31 36 35 29 33 36 43 46 43 44 47 46 43 41 37 35 35 33 25 21 23 24 25 26 28 28 28 28 25 24 24 25 24 27 28 27 26 24 23 24
31 25 27 30 32 35 42 41 45 49 50 46 45 42 43 43 41 39 35 32 33 29 20 20 22 24 26 26 24 24 25 23 22 21 23 23 25 27 27 26 25 24 23 23
27 28 28 32 32 37 43 51 51 46 44 44 46 46 44 41 39 36 32 31 29 21 17 20 22 22 22 20 22 21 20 20 20 21 22 22 24 27 25 25 24 23 20 21
25 29 32 34 45 51 52 52 51 51 50 47 46 44 41 40 38 33 30 27 22 14 17 18 19 20 19 20 19 18 19 19 20 20 21 22 24 26 25 24 24 22 20 20
30 38 45 48 52 54 52 50 49 49 48 47 46 43 39 38 36 31 27 23 13 13 15 15 17 18 18 18 17 17 19 19 18 19 20 21 23 25 24 23 22 22 20 19
45 49 51 54 52 49 48 47 48 46 44 44 42 40 37 34 31 26 23 14 11 13 13 14 17 17 17 16 16 17 19 18 18 19 19 21 21 23 23 22 21 21 20 18
52 53 51 44 44 45 45 44 43 44 43 41 38 34 32 31 27 22 17 9 11 12 12 14 17 16 16 16 16 18 19 19 18 19 19 19 21 22 22 22 20 19 18 17
44 41 41 41 43 43 42 41 42 40 39 38 35 34 31 27 20 18 9 10 11 12 12 14 16 16 15 16 16 18 19 19 18 18 19 19 19 20 20 20 19 17 16 15
39 40 41 41 42 44 45 39 38 38 36 34 33 32 23 17 17 12 6 11 12 13 12 14 15 16 16 17 18 19 19 19 18 18 18 19 18 18 18 18 18 16 15 13
35 36 38 41 44 43 40 37 35 33 30 27 27 20 14 16 14 7 10 11 13 14 14 14 15 16 16 17 17 18 18 19 18 18 18 18 19 17 17 16 16 16 14 13
34 36 37 39 38 34 32 31 31 27 23 22 17 13 13 13 7 9 12 13 15 15 14 15 16 15 16 16 17 18 19 19 19 18 18 18 19 18 16 15 14 13 14 13
34 35 36 35 32 32 30 25 25 23 21 15 12 12 13 8 9 12 12 13 15 15 14 15 15 15 15 15 17 19 20 21 20 19 19 19 19 19 17 15 13 12 12 12
Wind_Direction
292 288 287 290 295 303 296 295 274 299 307 316 319 315 308 302 296 299 308 314 316 312 309 306 309 314 317 321 322 322 322 317 313 310 305 301 301 300 295 295 289 284 280 293
299 306 312 299 300 299 292 290 289 302 304 313 316 314 297 302 304 311 317 314 313 313 310 305 311 315 322 322 321 320 316 313 313 310 300 296 282 267 266 279 306 315 313 309
279 307 312 302 296 307 296 297 299 298 307 312 314 313 310 305 306 306 310 314 316 306 306 317 321 321 318 318 316 312 313 315 313 308 305 300 302 308 312 317 317 314 310 307
276 292 241 294 301 300 291 286 278 288 301 299 310 313 314 312 312 315 306 315 301 308 318 328 325 322 322 315 312 313 313 311 308 309 310 307 311 309 310 311 310 308 306 304
254 260 274 293 312 306 283 278 290 286 276 302 316 310 312 315 315 316 309 299 328 331 327 326 323 318 312 311 311 316 314 301 303 304 299 299 305 310 310 308 307 306 306 307
267 262 254 294 296 291 285 289 287 264 305 313 315 310 311 314 312 308 330 337 329 327 325 320 316 309 310 312 318 312 306 299 304 304 309 316 312 309 307 307 307 308 309 310
265 261 276 305 298 294 285 301 306 308 303 310 308 311 309 315 310 316 331 329 326 323 320 318 315 313 315 321 310 309 309 314 317 317 315 312 310 310 309 308 308 309 310 311
270 258 276 308 285 292 305 301 301 299 305 307 307 311 306 309 331 331 329 326 325 324 321 319 316 311 315 313 309 309 306 310 314 316 313 311 310 311 310 310 309 310 311 313
260 264 295 293 286 293 295 295 295 303 305 306 304 303 302 334 339 330 327 326 323 321 318 317 318 313 305 305 304 298 297 308 317 312 309 310 312 314 314 311 310 311 313 314
269 282 304 300 298 288 290 293 294 297 300 309 295 304 338 339 332 328 326 324 323 323 322 320 316 309 309 304 301 312 322 319 312 311 311 312 314 314 313 312 312 313 315 316
283 304 311 303 304 294 303 296 302 310 305 293 309 345 336 333 329 327 326 325 326 325 325 321 315 310 311 319 327 322 315 314 313 313 314 315 315 315 315 316 317 317 318 319
291 310 309 307 292 299 289 310 303 305 288 313 336 331 328 330 327 325 324 323 323 327 328 323 322 324 326 322 316 314 313 313 315 316 317 317 317 316 318 318 319 319 320 320
302 306 297 292 301 292 302 311 290 309 323 337 331 333 330 326 321 322 322 323 326 323 323 321 321 323 322 316 315 314 315 317 318 319 320 321 321 322 321 322 323 323 321 322
294 293 295 299 294 295 302 296 294 314 330 326 329 332 328 320 320 320 322 323 322 320 317 318 319 321 317 315 315 316 318 319 322 324 325 327 329 329 329 328 327 329 325 328
290 292 295 299 296 292 290 294 303 315 324 326 328 325 324 322 319 318 317 314 319 318 316 318 320 318 316 316 317 318 319 322 325 326 329 332 333 333 332 330 331 333 332 333
298 303 304 303 294 293 288 307 320 322 325 328 326 327 322 316 313 311 311 311 317 314 312 316 316 316 316 317 317 319 321 325 328 328 331 334 335 336 334 333 335 338 336 337
298 296 294 295 294 291 306 311 323 323 323 321 320 319 315 314 311 310 310 310 308 309 312 316 317 318 320 321 321 324 325 329 330 330 333 336 337 338 338 338 339 340 339 340
289 278 287 295 297 301 303 312 320 322 322 321 320 316 313 311 308 310 309 304 302 304 312 317 322 326 327 327 330 330 331 331 330 332 336 337 339 340 340 341 343 342 341 344
300 301 299 299 313 317 318 319 319 317 316 313 310 309 310 308 306 306 303 297 293 303 309 318 322 326 326 329 331 333 333 333 331 334 337 339 341 343 343 344 347 345 343 348
301 309 313 314 315 315 314 313 311 310 310 309 305 302 302 303 305 298 293 287 286 297 308 313 318 320 322 326 328 331 334 336 335 336 338 340 342 344 344 346 349 349 345 348
311 312 312 310 309 309 309 309 309 311 311 311 308 304 301 302 297 286 281 275 287 296 302 314 319 318 321 321 325 327 331 333 333 335 337 340 341 345 345 348 350 352 350 351
305 304 307 308 308 309 310 311 313 313 315 316 311 309 304 300 286 275 271 277 285 296 306 316 319 322 322 320 320 322 322 326 330 331 334 336 341 342 345 348 349 350 353 353
305 307 311 311 311 313 314 314 313 311 313 313 311 309 303 292 272 266 268 286 291 300 301 308 317 321 323 324 323 324 323 320 324 328 329 332 335 339 342 346 348 348 348 350
308 309 311 312 312 311 311 310 308 310 310 309 310 310 301 278 267 274 293 288 294 294 297 306 313 321 324 321 321 321 324 325 320 321 328 329 329 335 339 344 346 348 349 348
309 312 315 316 315 314 312 310 310 313 312 310 313 309 289 276 280 300 298 293 298 298 295 301 311 317 322 322 323 325 326 327 324 320 320 324 327 328 333 338 342 345 348 349
312 314 317 319 320 316 316 315 315 316 313 315 311 301 289 285 310 307 300 299 302 299 291 298 309 314 319 321 323 325 328 328 323 319 320 321 324 324 324 328 333 339 344 347
312 314 317 318 320 317 312 313 317 317 315 309 303 297 293 304 304 301 300 303 307 306 301 301 304 310 315 320 322 324 325 326 325 321 316 315 317 318 317 318 321 330 336 340